WE3C Weather Reports


Display with metric or nautical units.
time (UTC)temp
F
wind
direction
speed
MPH
gust
MPH
rain 1hr
in
rain 24hr
in
rain mn
in
humidity
%
barometer
mb
20260906054502 63 30 0.0 0.0 0.00 0.00 0.00 83 1017.9
20260906053001 63 30 0.0 0.0 0.00 0.00 0.00 83 1017.9
20260906051601 63 24 0.0 0.0 0.00 0.00 0.00 82 1018.0
20260906050126 63 25 0.0 0.0 0.00 0.00 0.00 82 1017.8
20260906044558 64 15 0.0 0.0 0.00 0.00 0.00 82 1017.9
20260906043108 64 30 0.0 0.0 0.00 0.00 0.00 82 1018.2
20260906041555 63 24 0.0 0.0 0.00 0.00 0.00 82 1018.0
20260906040055 63 31 0.0 0.0 0.00 0.00 0.00 82 1018.0
20260906034547 64 21 0.0 0.0 0.00 0.00 0.00 82 1018.0
20260906033044 64 29 0.0 0.0 0.00 0.00 0.00 82 1017.9
20260906031542 64 30 0.0 0.0 0.00 0.00 0.00 82 1017.7
20260906030034 64 16 0.0 0.0 0.00 0.00 0.00 81 1017.7
20260906024529 64 30 0.0 0.0 0.00 0.00 0.00 81 1017.6
20260906023026 64 32 0.0 0.0 0.00 0.00 0.00 80 1017.6
20260906021520 65 34 0.0 0.0 0.00 0.00 0.00 80 1017.5
20260906020016 65 27 0.0 0.0 0.00 0.00 0.00 81 1017.3
20260906014511 65 23 0.0 0.0 0.00 0.00 0.00 80 1017.4
20260906013010 66 23 0.0 0.0 0.00 0.00 0.00 80 1017.4
20260906011502 66 25 0.0 0.0 0.00 0.00 0.00 79 1017.4
20260906010059 66 32 0.0 0.0 0.00 0.00 0.00 77 1017.1
20260906004558 67 28 0.0 0.0 0.00 0.00 0.00 78 1016.9
20260906003104 67 17 0.0 0.0 0.00 0.00 0.00 75 1016.8
20260906001546 67 23 0.0 0.0 0.00 0.00 0.00 75 1016.6
20260906000036 68 9 0.0 0.0 0.00 0.00 0.00 74 1016.5
20260905234533 68 348 0.0 0.0 0.00 0.00 0.00 75 1016.4
20260905233029 69 10 0.0 0.0 0.00 0.00 0.00 74 1016.2
20260905231523 70 5 0.0 0.0 0.00 0.00 0.00 73 1016.2
20260905230016 70 360 0.0 0.0 0.00 0.00 0.00 71 1016.1
20260905224512 71 360 0.0 0.0 0.00 0.00 0.00 70 1016.1
20260905223007 72 355 0.0 0.0 0.00 0.00 0.00 69 1015.9
20260905221502 73 355 0.0 0.0 0.00 0.00 0.00 69 1016.0
20260905220058 73 350 0.0 0.0 0.00 0.00 0.00 65 1015.9
20260905214604 74 355 0.0 0.0 0.00 0.00 0.00 64 1015.6
20260905213049 74 17 0.0 0.0 0.00 0.00 0.00 63 1015.7
20260905211544 74 355 0.0 0.0 0.00 0.00 0.00 65 1015.5
20260905210044 74 336 0.0 0.0 0.00 0.00 0.00 64 1015.5
20260905204535 75 317 0.0 0.0 0.00 0.00 0.00 63 1015.5
20260905203031 75 338 0.0 0.0 0.00 0.00 0.00 63 1015.5
20260905201535 74 351 0.0 0.0 0.00 0.00 0.00 63 1015.7
20260905200030 76 34 0.0 0.0 0.00 0.00 0.00 60 1015.7
20260905194518 75 351 0.0 0.0 0.00 0.00 0.00 62 1015.7
20260905193025 75 16 0.0 0.0 0.00 0.00 0.00 62 1015.7
20260905191509 75 355 0.0 0.0 0.00 0.00 0.00 62 1015.8
20260905190012 74 9 0.0 0.0 0.00 0.00 0.00 64 1016.0
20260905184610 74 360 0.0 0.0 0.00 0.00 0.00 64 1016.0
20260905183100 74 5 0.0 0.0 0.00 0.00 0.00 64 1016.2
20260905181552 74 339 0.0 0.0 0.00 0.00 0.00 65 1016.1
20260905180051 73 11 0.0 0.0 0.00 0.00 0.00 66 1016.1
20260905174549 74 355 0.0 0.0 0.00 0.00 0.00 64 1016.3
20260905173039 75 9 0.0 0.0 0.00 0.00 0.00 64 1016.4
20260905171536 74 351 0.0 0.0 0.00 0.00 0.00 67 1016.4
20260905170032 74 321 0.0 0.0 0.00 0.00 0.00 64 1016.4
20260905164527 75 355 0.0 0.0 0.00 0.00 0.00 64 1016.6
20260905163022 74 13 0.0 0.0 0.00 0.00 0.00 65 1016.8
20260905161518 74 302 0.0 0.0 0.00 0.00 0.00 67 1016.9
20260905160031 74 350 0.0 0.0 0.00 0.00 0.00 66 1017.0
20260905154514 73 348 0.0 0.0 0.00 0.00 0.00 68 1016.9
20260905153013 72 309 0.0 0.0 0.00 0.00 0.00 72 1017.1
20260905151511 72 347 0.0 0.0 0.00 0.00 0.00 70 1016.9
20260905150020 72 321 0.0 0.0 0.00 0.00 0.00 73 1017.0
20260905144534 71 360 0.0 0.0 0.00 0.00 0.00 74 1016.8
20260905143018 70 15 0.0 0.0 0.00 0.00 0.00 73 1016.7
20260905141507 70 360 0.0 0.0 0.00 0.00 0.00 75 1016.8
20260905140005 69 12 0.0 0.0 0.00 0.00 0.00 77 1016.8
20260905134503 69 341 0.0 0.0 0.00 0.00 0.00 77 1016.9
20260905133001 68 11 0.0 0.0 0.00 0.00 0.00 79 1016.8
20260905131606 68 336 0.0 0.0 0.00 0.00 0.00 80 1016.7
20260905124559 67 26 0.0 0.0 0.00 0.00 0.00 80 1016.6
20260905123100 67 345 0.0 0.0 0.00 0.00 0.00 81 1016.6
20260905121556 67 24 0.0 0.0 0.00 0.00 0.00 80 1016.5
20260905120058 67 26 0.0 0.0 0.00 0.00 0.00 81 1016.5
20260905114626 67 17 0.0 0.0 0.00 0.00 0.00 81 1016.4
20260905113057 67 10 0.0 0.0 0.00 0.00 0.00 81 1016.6
20260905111554 67 350 0.0 0.0 0.00 0.00 0.00 81 1016.4
20260905110052 67 11 0.0 0.0 0.00 0.00 0.00 81 1016.2
20260905104554 67 10 0.0 0.0 0.00 0.00 0.00 82 1016.1
20260905103053 67 14 0.0 0.0 0.00 0.00 0.00 81 1015.7
20260905101551 67 42 0.0 0.0 0.00 0.00 0.00 81 1015.5
20260905100108 67 360 0.0 0.0 0.00 0.00 0.00 81 1015.6
20260905094603 67 20 0.0 0.0 0.00 0.00 0.00 81 1015.5
20260905093049 67 345 0.0 0.0 0.00 0.00 0.00 81 1015.5
20260905091558 67 347 0.0 0.0 0.00 0.00 0.00 81 1015.3
20260905090047 68 347 0.0 0.0 0.00 0.00 0.00 81 1015.3
20260905084548 68 350 0.0 0.0 0.00 0.00 0.00 81 1015.3
20260905083045 68 351 0.0 0.0 0.00 0.00 0.00 81 1015.3
20260905081544 68 17 0.0 0.0 0.00 0.00 0.00 81 1015.3
20260905080040 69 9 0.0 0.0 0.00 0.00 0.00 81 1015.5
20260905074551 69 19 0.0 0.0 0.00 0.00 0.00 81 1015.4
20260905073055 69 11 0.0 0.0 0.00 0.00 0.00 82 1015.4
20260905071534 69 9 0.0 0.0 0.00 0.00 0.00 82 1015.6
20260905070031 69 19 0.0 0.0 0.00 0.00 0.00 82 1015.7
20260905064529 69 17 0.0 0.0 0.00 0.00 0.00 82 1015.7
20260905063028 69 22 0.0 0.0 0.00 0.00 0.00 82 1015.9
20260905061627 69 12 0.0 0.0 0.00 0.00 0.00 82 1016.0
20260905060025 69 43 0.0 0.0 0.00 0.00 0.00 82 1015.9